Theta_e
344 348 352 352 353 355 355 359 358 353 351 352 350 351 352 353 353 353 352 351 351 350 351 353 356 353 350 348 348 344 340 340
342 345 351 353 353 354 356 359 358 357 352 353 352 351 353 352 354 357 354 352 352 350 347 348 349 348 348 348 345 345 345 344
345 349 351 355 353 355 358 360 359 358 357 355 354 354 354 355 355 357 355 353 352 351 350 349 349 347 348 348 346 344 345 345
342 350 351 354 355 356 359 360 362 361 361 360 357 357 357 356 354 355 357 355 355 353 352 351 349 347 346 346 346 346 345 344
340 351 353 355 356 358 360 360 361 359 362 361 359 357 357 356 354 358 357 358 357 357 352 350 348 351 351 350 349 349 349 349
341 352 356 358 357 357 360 358 360 357 360 359 358 357 358 356 356 356 357 358 358 357 352 351 350 351 349 348 348 348 349 349
337 350 354 359 360 359 358 360 357 356 359 359 357 360 358 356 356 356 358 357 358 357 353 352 355 350 350 351 351 351 349 347
320 342 346 353 359 362 361 359 356 356 356 356 354 354 355 355 356 356 359 359 359 359 356 355 354 348 349 351 352 350 342 341
320 322 334 345 355 360 362 359 358 352 348 348 349 350 350 351 354 357 358 358 358 357 352 353 352 349 350 342 340 339 341 341
318 321 329 342 349 356 359 359 352 349 350 351 350 351 350 351 352 355 356 356 356 355 354 350 349 345 343 341 339 338 339 343
317 318 323 335 342 349 355 358 351 350 354 350 349 351 351 349 348 348 351 352 353 352 349 348 346 343 342 345 343 342 338 342
317 318 322 330 337 345 352 356 348 347 349 347 352 347 344 346 347 348 348 348 349 350 349 347 346 344 342 345 345 345 344 337
315 317 320 326 333 341 351 353 344 343 345 349 349 348 347 348 348 349 349 347 348 347 348 346 347 346 346 347 347 345 341 340
316 318 321 326 333 342 350 339 340 340 344 348 348 348 346 344 345 344 344 343 345 346 346 347 347 345 345 344 343 343 343 341
316 316 320 328 339 340 339 337 337 341 347 343 343 346 347 346 346 347 343 341 341 344 344 344 342 343 344 345 342 341 338 335
316 319 326 336 334 334 334 336 337 338 336 336 340 345 341 339 338 341 339 338 337 339 342 342 340 338 339 339 334 333 334 331
322 327 333 330 332 331 331 333 333 333 334 334 335 335 335 333 334 335 332 333 331 332 333 334 334 333 332 332 329 330 330 330
321 323 325 328 329 331 334 335 333 332 332 331 330 330 330 330 329 328 328 328 328 328 327 328 328 328 328 329 327 328 326 325
317 318 323 326 328 330 330 328 327 327 326 326 325 323 322 321 321 321 322 323 323 322 322 323 323 324 325 325 325 324 323 324
315 318 321 323 323 325 325 325 324 324 323 321 319 318 317 314 314 315 316 318 319 318 318 318 318 318 320 319 318 319 318 318
Wind_Speed
13 15 17 19 19 15 16 15 14 16 12 11 9 8 9 9 13 12 10 8 9 8 7 8 9 10 8 9 9 9 11 7
13 15 17 18 19 18 17 18 16 15 11 11 11 9 9 9 11 13 9 7 8 8 7 8 8 8 9 8 6 8 8 10
10 14 14 17 19 19 18 17 16 14 12 10 10 10 9 11 11 13 10 9 8 8 7 7 6 7 7 7 8 6 9 10
10 16 17 18 18 18 17 18 16 14 12 12 9 9 10 10 10 11 13 9 7 8 7 8 7 7 7 7 8 8 9 9
14 17 18 19 17 16 17 17 15 15 14 10 9 9 9 10 9 10 12 10 8 8 7 6 6 5 7 6 7 8 8 6
15 15 17 17 16 18 17 15 16 16 12 11 10 8 9 8 8 9 12 11 10 9 7 8 7 7 7 7 7 7 7 6
14 16 16 15 17 16 17 17 17 16 12 9 7 8 7 7 5 4 7 10 11 10 9 8 7 7 7 7 8 7 6 5
16 16 15 15 15 15 15 13 13 13 8 6 7 7 7 3 4 8 10 9 11 10 9 8 8 8 7 7 8 2 3 5
16 15 14 13 14 15 16 14 12 9 8 8 8 9 7 7 8 6 8 8 9 9 7 8 8 8 5 2 3 6 8 6
16 13 13 14 15 15 15 14 12 10 8 8 7 6 7 6 6 5 6 7 8 9 10 7 7 4 6 5 4 5 7 9
17 15 15 15 15 16 15 15 14 10 11 7 8 7 5 7 4 5 5 6 7 8 6 5 5 7 6 7 8 9 10 7
19 17 16 14 15 14 13 13 13 9 12 11 11 8 6 5 6 5 5 7 7 8 7 5 7 7 8 9 8 8 8 9
20 18 16 16 13 12 12 12 11 10 8 9 8 6 4 4 4 5 4 5 6 7 7 7 9 8 9 9 7 7 7 9
20 17 16 13 11 12 12 13 10 10 9 8 6 6 4 3 3 4 5 5 5 6 6 6 7 7 6 7 4 7 8 5
16 17 15 14 12 12 11 14 13 10 10 8 7 6 6 4 1 1 2 4 4 4 4 4 4 3 2 1 4 3 5 6
16 17 15 17 14 14 14 15 14 13 12 11 9 6 7 6 8 7 4 5 4 1 2 3 3 3 2 2 5 6 4 6
17 16 15 14 15 16 16 17 17 16 15 13 12 12 11 11 11 8 7 7 5 5 4 3 1 0 2 3 5 5 5 7
16 15 16 14 14 16 17 18 19 18 16 14 13 14 14 12 10 10 8 6 5 5 4 3 3 4 5 5 5 6 7 8
15 15 16 16 18 19 19 19 19 17 15 13 13 13 14 11 10 10 8 7 6 6 5 5 5 6 6 7 8 10 11 11
17 16 16 19 20 19 18 16 16 15 13 12 11 12 12 10 10 11 6 6 6 6 6 6 7 8 8 9 11 12 13 14
Wind_Direction
203 197 191 182 181 175 178 171 181 185 180 169 182 178 179 186 187 180 200 187 190 205 188 195 206 196 207 193 194 221 222 242
216 204 192 183 185 185 177 175 183 194 182 183 185 186 185 192 193 189 194 200 189 208 209 200 209 200 230 212 219 236 236 237
216 225 195 189 188 187 180 184 186 190 197 188 198 197 190 198 191 193 201 206 197 203 210 224 215 223 213 236 241 232 235 242
217 207 200 197 189 191 182 189 187 192 195 192 196 203 188 206 200 195 208 212 197 207 210 218 220 232 241 237 232 243 237 253
217 207 201 194 194 186 187 189 182 195 198 188 204 192 218 205 207 201 205 211 203 237 219 225 224 226 241 241 250 235 252 241
208 204 204 192 194 191 187 189 183 194 190 185 212 207 213 211 206 195 208 207 222 208 221 221 220 223 218 231 234 237 248 237
208 203 197 197 200 191 192 191 189 195 191 189 200 210 229 221 214 219 167 212 217 232 230 225 215 227 222 220 228 244 247 271
196 205 198 200 199 195 194 190 194 188 178 165 177 198 213 172 200 208 199 214 220 222 238 236 215 230 222 227 239 286 332 286
197 191 198 195 192 194 192 186 175 164 159 175 175 184 188 191 204 204 211 214 221 219 241 216 222 234 223 192 261 269 264 243
200 189 192 188 190 194 194 180 161 164 169 193 177 175 187 192 189 207 224 225 214 223 233 228 210 205 211 205 197 257 261 249
200 195 191 194 193 191 191 185 158 183 148 150 163 168 171 186 176 193 209 221 213 219 229 235 201 228 230 237 231 237 255 248
201 194 194 191 197 189 185 178 143 170 145 171 178 186 190 195 201 184 196 209 212 218 215 207 222 219 229 250 240 237 232 261
201 195 197 202 194 174 168 154 141 145 168 178 183 207 167 171 182 162 202 205 219 230 222 217 228 226 225 247 236 235 251 256
203 195 196 187 178 160 136 126 128 145 169 172 187 162 168 167 171 207 167 203 201 217 214 221 223 234 233 234 247 248 253 288
190 185 180 167 139 123 136 134 136 155 136 149 158 159 142 135 274 175 154 149 203 133 232 222 213 228 239 241 212 237 242 270
184 173 163 131 141 143 133 132 123 116 99 95 91 99 70 82 52 57 57 71 59 34 130 127 128 150 171 201 224 265 281 270
147 140 114 118 128 121 123 119 117 114 111 107 99 93 89 77 65 65 71 54 86 44 46 47 61 271 278 296 264 273 282 273
97 104 111 113 120 127 126 120 116 115 115 111 105 102 90 88 87 79 70 60 42 31 12 344 329 315 310 310 284 275 287 286
102 106 111 116 117 115 113 112 111 107 106 105 101 95 92 87 86 79 53 45 24 11 357 341 322 311 314 309 300 290 282 286
106 109 117 117 112 107 102 100 99 96 93 89 87 92 100 93 83 72 45 34 359 340 335 325 314 313 315 308 300 298 291 288